When you browse on this site, cookies collect data to enhance your experience and personalize the content and advertising you see.
Visit our Privacy Policy to learn more. By continuing to use the site, you agree to this use of cookies and data.
  • In Hungary
  • List of Countries
  • For 7 days
  • Water Temperature
  • Satellite Maps
  • Weather Map
  • News
  • Weather Widgets
  • user-avatar
    Login

    Hourly Weather Chubran

    Today, 14 December, Friday

    Time Temperature Precipitation Wind Pressure Humidity
    00:00 +7°C° 0 mm 4 mps 691 mmHg 30%
    01:00 +7°C° 0 mm 4 mps 692 mmHg 29%
    02:00 +7°C° 0 mm 4 mps 692 mmHg 29%
    03:00 +7°C° 0 mm 4 mps 692 mmHg 29%
    04:00 +7°C° 0 mm 4 mps 691 mmHg 28%
    05:00 +7°C° 0 mm 4 mps 692 mmHg 28%
    06:00 +7°C° 0 mm 4 mps 692 mmHg 28%
    07:00 +7°C° 0 mm 4 mps 692 mmHg 29%
    08:00 +10°C° 0 mm 4 mps 692 mmHg 28%
    09:00 +12°C° 0 mm 4 mps 693 mmHg 27%
    10:00 +14°C° 0 mm 3 mps 693 mmHg 26%
    11:00 +16°C° 0 mm 3 mps 694 mmHg 25%
    12:00 +16°C° 0 mm 3 mps 694 mmHg 24%
    13:00 +17°C° 0 mm 3 mps 694 mmHg 23%
    14:00 +14°C° 0 mm 3 mps 694 mmHg 25%
    15:00 +14°C° 0 mm 2 mps 693 mmHg 28%
    16:00 +12°C° 0 mm 2 mps 693 mmHg 31%
    17:00 +12°C° 0 mm 2 mps 693 mmHg 30%
    18:00 +10°C° 0 mm 2 mps 693 mmHg 30%
    19:00 +9°C° 0 mm 2 mps 694 mmHg 30%
    20:00 +9°C° 0 mm 2 mps 694 mmHg 30%
    21:00 +9°C° 0 mm 2 mps 694 mmHg 29%
    22:00 +8°C° 0 mm 2 mps 694 mmHg 29%
    23:00 +8°C° 0 mm 2 mps 694 mmHg 29%

    Tomorrow, 15 December, Saturday

    Time Temperature Precipitation Wind Pressure Humidity
    00:00 +8°C° 0 mm 2 mps 694 mmHg 29%
    01:00 +7°C° 0 mm 2 mps 694 mmHg 29%
    02:00 +7°C° 0 mm 2 mps 694 mmHg 29%
    03:00 +7°C° 0 mm 2 mps 694 mmHg 29%
    04:00 +7°C° 0 mm 2 mps 694 mmHg 29%
    05:00 +7°C° 0 mm 2 mps 694 mmHg 29%
    06:00 +6°C° 0 mm 2 mps 694 mmHg 29%
    07:00 +6°C° 0 mm 2 mps 694 mmHg 29%
    08:00 +8°C° 0 mm 2 mps 694 mmHg 28%
    09:00 +10°C° 0 mm 2 mps 694 mmHg 27%
    10:00 +13°C° 0 mm 1 mps 695 mmHg 26%
    11:00 +13°C° 0 mm 2 mps 694 mmHg 25%
    12:00 +14°C° 0 mm 2 mps 694 mmHg 25%
    13:00 +14°C° 0 mm 2 mps 694 mmHg 25%
    14:00 +13°C° 0 mm 2 mps 694 mmHg 28%
    15:00 +12°C° 0 mm 2 mps 694 mmHg 32%
    16:00 +10°C° 0 mm 1 mps 693 mmHg 35%
    17:00 +9°C° 0 mm 2 mps 694 mmHg 35%
    18:00 +8°C° 0 mm 2 mps 694 mmHg 36%
    19:00 +7°C° 0 mm 2 mps 694 mmHg 36%
    20:00 +7°C° 0 mm 2 mps 694 mmHg 37%
    21:00 +6°C° 0 mm 2 mps 695 mmHg 37%
    22:00 +6°C° 0 mm 2 mps 695 mmHg 38%
    23:00 +6°C° 0 mm 2 mps 695 mmHg 39%

    Day after tomorrow, 16 December, Sunday

    Time Temperature Precipitation Wind Pressure Humidity
    00:00 +6°C° 0 mm 2 mps 695 mmHg 40%
    01:00 +5°C° 0 mm 2 mps 696 mmHg 42%
    02:00 +5°C° 0 mm 2 mps 696 mmHg 43%
    03:00 +5°C° 0 mm 2 mps 696 mmHg 45%
    04:00 +5°C° 0 mm 1 mps 696 mmHg 46%
    05:00 +5°C° 0 mm 1 mps 697 mmHg 46%
    06:00 +5°C° 0 mm 1 mps 697 mmHg 47%
    07:00 +5°C° 0 mm 1 mps 697 mmHg 47%
    08:00 +7°C° 0 mm 1 mps 698 mmHg 44%
    09:00 +8°C° 0 mm 1 mps 698 mmHg 41%
    10:00 +10°C° 0 mm 1 mps 698 mmHg 38%
    11:00 +10°C° 0 mm 1 mps 698 mmHg 38%
    12:00 +10°C° 0 mm 2 mps 697 mmHg 37%
    13:00 +12°C° 0 mm 2 mps 697 mmHg 36%
    14:00 +10°C° 0 mm 2 mps 697 mmHg 39%
    15:00 +9°C° 0 mm 2 mps 696 mmHg 43%
    16:00 +8°C° 0 mm 2 mps 696 mmHg 46%
    17:00 +7°C° 0 mm 2 mps 696 mmHg 45%
    18:00 +7°C° 0 mm 2 mps 696 mmHg 44%
    19:00 +7°C° 0 mm 2 mps 695 mmHg 43%
    20:00 +7°C° 0 mm 2 mps 695 mmHg 41%
    21:00 +7°C° 0 mm 2 mps 695 mmHg 40%
    22:00 +7°C° 0 mm 2 mps 694 mmHg 38%
    23:00 +7°C° 0 mm 2 mps 694 mmHg 37%

    17 December, Monday

    Time Temperature Precipitation Wind Pressure Humidity
    00:00 +7°C° 0 mm 2 mps 694 mmHg 35%
    01:00 +7°C° 0 mm 2 mps 694 mmHg 34%
    02:00 +7°C° 0 mm 2 mps 694 mmHg 34%
    03:00 +7°C° 0 mm 2 mps 693 mmHg 33%
    04:00 +6°C° 0 mm 2 mps 693 mmHg 32%
    05:00 +6°C° 0 mm 2 mps 693 mmHg 32%
    06:00 +6°C° 0 mm 2 mps 693 mmHg 31%
    07:00 +6°C° 0 mm 2 mps 694 mmHg 31%
    08:00 +8°C° 0 mm 2 mps 694 mmHg 29%
    09:00 +9°C° 0 mm 2 mps 695 mmHg 28%
    10:00 +12°C° 0 mm 2 mps 695 mmHg 26%
    11:00 +13°C° 0 mm 2 mps 695 mmHg 26%
    12:00 +12°C° 0 mm 3 mps 694 mmHg 26%
    13:00 +12°C° 0 mm 3 mps 694 mmHg 26%
    14:00 +11°C° 0 mm 3 mps 694 mmHg 30%
    15:00 +10°C° 0 mm 2 mps 694 mmHg 33%
    16:00 +9°C° 0 mm 2 mps 694 mmHg 36%
    17:00 +9°C° 0 mm 2 mps 694 mmHg 36%
    18:00 +8°C° 0 mm 2 mps 694 mmHg 36%
    19:00 +7°C° 0 mm 2 mps 694 mmHg 36%
    20:00 +7°C° 0 mm 2 mps 694 mmHg 36%
    21:00 +7°C° 0 mm 2 mps 694 mmHg 35%
    22:00 +7°C° 0 mm 2 mps 694 mmHg 35%
    23:00 +7°C° 0 mm 2 mps 694 mmHg 34%

    18 December, Tuesday

    Time Temperature Precipitation Wind Pressure Humidity
    00:00 +7°C° 0 mm 2 mps 694 mmHg 34%
    01:00 +7°C° 0 mm 2 mps 693 mmHg 33%
    02:00 +7°C° 0 mm 2 mps 693 mmHg 33%
    03:00 +7°C° 0 mm 2 mps 693 mmHg 33%
    04:00 +7°C° 0 mm 2 mps 693 mmHg 32%
    05:00 +7°C° 0 mm 2 mps 693 mmHg 32%
    06:00 +7°C° 0 mm 2 mps 693 mmHg 32%
    07:00 +7°C° 0 mm 2 mps 693 mmHg 32%
    08:00 +9°C° 0 mm 2 mps 693 mmHg 31%
    09:00 +12°C° 0 mm 2 mps 693 mmHg 30%
    10:00 +13°C° 0 mm 1 mps 694 mmHg 29%
    11:00 +13°C° 0 mm 1 mps 693 mmHg 28%
    12:00 +14°C° 0 mm 1 mps 692 mmHg 28%
    13:00 +14°C° 0 mm 1 mps 692 mmHg 27%
    14:00 +13°C° 0 mm 2 mps 692 mmHg 30%
    15:00 +13°C° 0 mm 2 mps 691 mmHg 32%
    16:00 +12°C° 0 mm 2 mps 691 mmHg 35%
    17:00 +12°C° 0 mm 2 mps 691 mmHg 35%
    18:00 +10°C° 0 mm 2 mps 691 mmHg 34%
    19:00 +10°C° 0 mm 2 mps 690 mmHg 34%
    20:00 +10°C° 0 mm 2 mps 690 mmHg 33%
    21:00 +10°C° 0 mm 2 mps 690 mmHg 32%
    22:00 +10°C° 0 mm 2 mps 689 mmHg 31%
    23:00 +10°C° 0 mm 2 mps 689 mmHg 30%

    19 December, Wednesday

    Time Temperature Precipitation Wind Pressure Humidity
    00:00 +10°C° 0 mm 2 mps 689 mmHg 29%
    01:00 +10°C° 0 mm 2 mps 688 mmHg 28%
    02:00 +10°C° 0 mm 2 mps 688 mmHg 28%
    03:00 +10°C° 0 mm 2 mps 688 mmHg 27%
    04:00 +9°C° 0 mm 2 mps 688 mmHg 27%
    05:00 +10°C° 0 mm 1 mps 688 mmHg 27%
    06:00 +10°C° 0 mm 1 mps 688 mmHg 27%
    07:00 +10°C° 0 mm 1 mps 688 mmHg 27%
    08:00 +11°C° 0 mm 1 mps 689 mmHg 27%
    09:00 +12°C° 0 mm 2 mps 690 mmHg 26%
    10:00 +13°C° 0 mm 2 mps 690 mmHg 26%
    11:00 +12°C° 0.2 mm 3 mps 690 mmHg 33%
    12:00 +12°C° 0.2 mm 3 mps 690 mmHg 40%
    13:00 +11°C° 0.2 mm 4 mps 690 mmHg 46%
    14:00 +11°C° 0.2 mm 3 mps 691 mmHg 48%
    15:00 +10°C° 0.2 mm 3 mps 691 mmHg 50%
    16:00 +9°C° 0.2 mm 3 mps 692 mmHg 51%
    17:00 +9°C° 0.1 mm 3 mps 692 mmHg 56%
    18:00 +8°C° 0.1 mm 3 mps 693 mmHg 61%
    19:00 +7°C° 0.1 mm 3 mps 694 mmHg 67%
    20:00 +5°C° 0.3 mm 3 mps 694 mmHg 71%
    21:00 +6°C° 0.3 mm 2 mps 694 mmHg 75%
    22:00 +5°C° 0.3 mm 2 mps 695 mmHg 80%
    23:00 +5°C° 0.4 mm 2 mps 695 mmHg 81%
    Show more